Temperature
15 15 16 15 15 16 16 16 16 16 16 16 16 16 16 16 16 16 16 15 15 15 15 15 15 15 15 15 15 15 15 15 15 15 15 15 15 15 15 15 15 15 15
15 15 15 15 15 15 16 16 16 16 16 16 16 16 16 16 16 16 16 15 15 15 15 15 15 15 15 15 15 15 15 15 15 15 15 15 15 15 15 15 15 15 15
15 15 15 15 15 15 15 16 16 16 16 16 16 16 16 16 16 16 16 15 15 15 15 15 15 15 15 15 15 15 15 15 15 15 15 14 15 15 15 15 15 15 15
15 14 15 15 15 15 15 15 15 16 16 16 16 16 16 16 16 16 16 16 16 15 15 15 15 15 15 15 15 15 15 15 15 15 14 14 14 15 15 15 15 15 15
14 14 15 15 15 15 15 15 15 15 15 15 16 16 16 16 16 15 16 16 15 15 15 15 15 15 15 15 15 15 15 15 15 14 14 14 14 15 15 15 15 15 14
14 14 14 15 15 15 15 15 15 15 15 15 15 16 16 15 15 15 15 15 15 15 15 15 15 15 15 15 15 15 15 15 14 13 14 14 14 14 14 14 15 14 14
13 13 14 14 14 15 15 15 15 15 15 15 15 15 15 15 15 15 15 15 15 15 15 15 15 15 15 15 15 15 14 14 14 13 13 14 14 14 14 14 14 14 14
13 13 14 14 14 14 14 14 15 15 15 15 15 15 15 15 15 15 15 15 15 15 15 15 15 15 14 14 14 14 14 14 14 13 13 13 14 14 14 14 14 14 14
13 13 13 13 14 14 14 14 14 14 14 15 15 15 15 15 15 15 15 15 15 15 15 15 15 14 14 14 14 14 14 14 13 13 13 13 14 14 14 14 14 14 14
12 13 13 13 13 13 14 14 14 14 14 14 14 14 14 15 14 14 14 14 14 14 14 14 14 14 14 14 14 14 14 14 13 13 13 13 13 13 13 14 14 14 14
12 12 13 13 13 13 13 13 14 14 14 14 14 14 14 14 14 14 14 14 14 14 14 14 14 14 14 14 14 14 14 13 13 13 13 13 13 13 13 13 13 13 13
12 12 12 12 13 13 13 13 13 13 13 13 13 14 14 13 13 14 14 14 14 14 14 14 14 14 14 14 13 13 13 13 13 13 13 13 13 13 13 13 13 13 13
12 12 12 12 13 13 13 13 13 13 13 13 13 13 13 13 13 13 13 13 13 13 13 14 14 14 13 13 13 13 13 13 13 13 13 13 13 13 13 13 13 13 13
11 12 12 12 12 12 12 12 12 12 13 13 13 13 13 13 13 13 13 13 13 13 13 13 13 13 13 13 13 13 13 13 12 12 13 13 13 13 13 12 12 12 12
11 11 12 12 12 12 12 12 12 12 12 12 12 13 13 13 13 13 13 13 13 13 13 13 13 13 13 13 13 13 12 12 12 12 12 12 12 12 12 12 12 12 12
11 11 12 12 12 12 12 12 12 12 12 12 12 12 12 12 12 12 12 12 12 12 12 12 12 12 12 12 12 12 12 12 12 12 12 12 12 12 12 12 12 12 12
11 11 11 11 11 11 11 11 11 11 12 12 12 12 12 12 12 12 12 12 12 12 12 12 12 12 12 12 12 12 12 12 12 12 12 11 11 12 12 12 11 11 11
11 11 11 11 11 11 11 11 11 11 11 11 11 12 12 12 12 12 12 12 12 12 12 11 11 11 11 11 11 11 11 11 11 11 11 11 11 11 11 11 11 11 11
11 11 11 11 11 11 11 11 11 11 11 11 11 11 11 11 11 11 11 11 11 11 11 11 11 11 11 11 11 11 11 11 11 11 11 11 11 11 11 11 11 11 11
11 11 11 11 11 11 10 10 10 11 11 11 11 11 11 11 11 11 11 11 11 11 11 11 11 11 11 11 11 10 10 10 10 10 10 10 10 10 10 10 10 10 11
10 10 11 10 10 10 10 10 10 10 10 10 10 10 11 11 11 11 11 11 11 11 11 11 10 10 10 10 10 10 10 10 10 10 10 10 10 10 10 10 10 10 10
10 10 10 10 10 10 10 10 10 10 10 10 10 10 10 10 10 10 10 10 10 10 10 10 10 10 10 10 9 9 9 9 9 9 9 9 9 9 9 9 9 9 9
10 10 10 10 10 10 10 10 10 9 9 9 9 9 9 10 10 10 10 10 10 10 10 10 10 10 10 9 9 9 9 9 8 8 9 9 9 9 9 9 9 9 9
10 10 10 10 10 10 10 10 9 9 9 9 9 9 9 9 9 9 9 10 10 9 9 9 9 9 9 9 9 9 9 8 8 7 8 8 8 8 8 8 8 8 8
10 10 10 10 9 9 9 9 9 9 9 9 9 9 9 9 9 9 9 9 9 9 9 9 9 9 8 8 8 8 8 8 8 7 7 7 7 8 8 8 8 8 8
10 10 10 9 9 9 9 9 9 9 9 9 9 9 9 9 8 8 8 8 8 8 8 8 8 8 8 8 8 8 8 8 7 7 7 6 6 7 7 7 7 7 7
Wind_Speed
4 5 6 7 7 9 9 10 10 11 11 11 11 11 11 11 11 11 10 10 10 10 10 11 11 11 11 11 11 11 11 11 12 12 12 12 12 12 11 9 8 11 12
3 5 7 7 7 9 9 10 11 11 11 11 11 11 11 11 11 10 10 10 9 10 10 11 11 11 11 11 11 11 11 11 11 11 10 11 11 11 10 9 9 10 10
4 5 7 7 8 9 10 10 11 11 12 11 11 11 11 11 11 11 10 9 9 9 10 10 11 11 10 11 11 11 11 10 10 8 6 8 10 10 9 9 9 9 9
3 5 6 7 8 9 10 11 11 12 12 12 11 11 11 10 10 10 10 9 9 9 10 10 10 10 10 10 10 10 10 9 8 4 6 7 8 9 8 9 9 8 8
3 4 6 7 8 9 10 11 12 12 12 12 11 11 10 10 10 10 10 9 9 9 9 9 9 9 9 10 10 10 9 8 6 4 7 7 7 8 7 8 8 8 8
4 4 6 7 8 9 10 11 12 12 12 12 11 11 10 10 10 10 9 9 9 9 9 9 9 9 9 9 9 9 8 7 5 6 6 6 6 6 6 7 7 7 7
4 4 6 6 7 8 10 10 11 12 11 11 11 11 10 10 10 10 9 9 9 9 9 9 8 8 8 9 9 9 8 5 4 5 5 5 6 5 5 6 6 6 6
4 4 6 7 7 7 9 11 11 11 11 11 11 10 10 10 10 10 9 9 9 9 9 8 8 8 8 9 9 8 7 4 5 5 5 5 5 4 4 5 4 4 5
4 4 5 6 7 7 8 10 11 11 11 11 11 10 10 10 10 9 9 9 9 8 8 8 8 7 8 8 8 8 7 4 4 4 4 4 4 3 3 4 4 4 4
4 4 5 6 7 7 8 9 11 11 10 11 11 11 10 10 10 10 9 9 9 9 8 8 7 7 7 7 7 7 6 5 4 4 3 4 3 2 2 3 3 3 3
4 4 4 6 6 6 7 7 10 11 10 10 10 11 9 8 8 8 8 9 9 9 8 8 7 7 6 7 7 6 6 4 3 3 2 4 2 2 2 2 2 2 2
5 5 5 5 6 6 6 7 7 8 9 8 8 8 7 7 7 7 9 9 9 9 8 8 7 6 4 5 6 6 4 3 3 3 3 3 1 1 1 1 2 2 2
6 5 5 5 6 6 5 6 5 6 7 7 7 7 6 7 6 6 6 7 7 7 6 6 5 3 2 3 3 3 3 3 2 3 4 4 2 1 1 1 1 1 0
6 6 5 6 6 6 6 6 5 5 5 6 6 6 6 5 5 5 4 4 4 4 4 3 2 3 3 3 3 3 3 2 2 2 4 5 2 1 1 1 0 0 1
6 6 6 6 6 6 6 5 5 5 5 6 6 6 5 4 4 4 4 4 4 3 3 3 2 3 3 3 3 2 3 3 3 3 4 5 4 3 3 3 2 1 2
6 6 6 6 6 6 6 5 5 4 5 6 6 6 6 5 4 4 4 4 3 3 3 2 2 2 2 3 3 3 3 3 2 2 2 4 5 5 4 4 4 3 3
6 6 6 6 6 6 6 6 5 5 5 5 5 6 6 5 5 4 4 3 3 3 3 2 3 2 2 3 3 3 3 3 2 2 2 2 3 5 6 5 5 5 4
6 6 5 5 7 6 5 5 5 5 5 5 5 5 6 5 5 4 3 3 3 3 2 2 2 2 2 2 2 2 2 3 3 2 2 2 2 2 4 5 5 6 5
6 7 6 6 7 6 6 5 5 5 4 4 5 5 5 5 5 4 3 3 3 3 2 2 2 2 2 2 2 2 2 2 3 3 4 4 3 2 2 3 4 6 6
6 6 7 7 8 7 6 4 4 4 4 4 4 4 5 4 4 4 3 3 3 2 2 2 2 2 2 2 2 2 2 2 3 3 3 3 3 3 3 2 2 3 5
7 7 7 7 8 7 6 5 4 4 4 3 3 4 4 4 4 4 3 3 3 2 3 3 2 3 2 2 2 2 2 2 2 2 2 2 2 3 3 3 2 2 2
8 7 7 7 8 8 6 5 4 4 3 4 3 3 3 4 4 3 3 3 3 2 3 3 3 2 2 1 1 1 1 2 1 0 1 1 1 2 3 3 3 3 3
8 8 7 8 8 8 8 5 5 4 4 3 4 3 3 3 4 3 3 3 3 3 3 3 3 3 2 1 0 1 1 2 1 1 1 0 1 1 2 3 3 3 3
8 7 7 7 8 8 8 8 9 7 6 5 5 4 4 4 4 3 3 3 3 2 3 3 3 3 3 2 1 0 1 0 2 1 1 1 1 2 3 2 3 3 2
8 7 8 8 8 8 9 9 9 7 5 5 5 5 4 4 3 3 3 3 3 2 2 2 2 2 2 2 2 1 1 1 2 2 2 2 2 2 2 3 3 3 3
7 8 8 9 9 9 9 9 9 9 8 7 7 6 5 3 3 3 3 3 3 2 3 2 2 3 2 2 2 2 2 1 1 2 3 3 3 3 3 3 3 3 3
Wind_Direction
154 162 157 171 166 160 153 148 144 140 136 132 129 128 129 128 127 125 126 125 123 120 118 114 111 111 107 104 102 99 97 94 91 90 88 87 86 87 88 88 92 90 87
154 166 155 169 169 164 156 150 145 142 139 135 132 129 128 129 129 127 124 122 121 121 119 116 112 110 108 105 102 101 100 98 96 95 99 99 90 85 87 81 69 84 89
142 158 161 161 165 165 157 153 148 145 141 138 135 133 129 127 127 126 123 120 119 118 119 118 114 111 110 109 107 104 102 100 99 103 123 108 99 88 87 86 86 91 92
141 156 162 153 163 161 157 155 150 147 143 140 137 133 129 127 127 128 125 121 119 119 119 117 116 114 112 110 109 107 107 106 106 127 110 98 100 92 89 89 89 91 92
145 152 149 154 159 158 156 157 153 150 146 143 139 135 131 128 126 127 126 122 119 117 119 120 118 118 116 115 115 112 110 112 122 124 99 97 97 94 90 90 88 88 89
149 148 143 150 155 156 155 155 156 150 147 144 140 137 133 129 125 123 122 121 120 118 117 118 119 122 121 121 120 117 114 124 152 115 108 103 97 97 97 93 89 89 91
152 141 139 137 148 151 155 153 150 150 147 145 142 138 134 128 123 122 118 120 122 119 116 112 116 125 124 123 121 119 118 125 130 118 112 106 92 93 100 100 95 91 90
153 140 136 123 122 139 153 152 149 146 142 141 141 138 134 128 124 120 118 118 121 121 117 111 107 119 125 123 121 120 120 133 128 118 114 106 85 92 100 104 101 92 91
156 147 143 146 138 127 137 148 147 143 141 138 135 131 127 124 121 118 116 119 120 120 117 113 107 115 126 128 126 123 122 132 132 121 120 103 82 90 104 106 107 97 92
165 158 151 147 143 143 144 141 141 135 133 133 127 122 120 121 121 117 116 112 113 110 109 110 108 110 121 129 130 129 137 169 136 130 124 96 84 94 109 108 111 108 91
170 162 151 148 143 146 143 139 142 134 129 130 127 123 129 133 130 125 112 111 109 106 106 106 106 104 115 129 133 141 161 164 141 129 116 82 92 102 116 122 111 108 102
182 173 164 156 150 149 145 144 149 146 138 139 139 139 138 132 124 118 111 110 109 107 105 103 104 114 130 143 146 167 170 163 148 133 102 84 101 140 133 135 138 112 106
183 178 169 167 158 147 151 146 149 150 142 136 133 134 134 127 124 123 127 122 119 121 114 113 122 116 116 133 154 163 162 159 148 125 98 88 85 92 115 126 162 198 190
186 176 170 165 161 156 154 148 153 152 146 139 137 136 132 129 130 130 127 128 129 125 119 119 111 107 112 119 148 146 146 152 145 122 87 81 71 62 69 112 153 204 185
192 182 171 169 157 153 152 149 151 153 151 144 140 139 134 130 134 130 126 125 123 119 123 109 107 103 98 96 97 122 127 131 136 133 103 85 70 61 55 54 65 102 110
194 183 173 171 158 152 152 150 149 153 150 144 141 141 140 134 131 131 127 124 119 116 114 118 113 109 99 87 82 83 115 114 115 115 100 96 77 54 45 44 44 52 69
197 184 173 168 158 155 150 152 145 150 151 142 138 141 139 137 136 135 130 126 118 114 113 112 112 109 103 99 100 89 81 90 99 104 99 90 94 73 55 44 41 43 39
192 179 172 168 159 155 145 148 146 145 145 139 136 137 138 139 142 140 131 122 122 122 121 118 121 120 107 103 104 97 89 90 78 78 89 88 81 78 72 52 40 36 30
190 179 173 169 160 154 140 136 139 134 134 134 137 138 139 141 147 140 132 124 133 132 129 126 123 129 115 95 91 92 87 97 95 79 74 69 63 55 55 71 58 43 32
186 182 172 167 158 148 139 135 134 130 132 131 136 136 138 140 141 135 135 135 135 139 139 138 124 114 115 108 102 88 81 91 93 88 78 68 56 48 41 47 63 52 37
178 180 173 168 161 155 151 153 158 156 148 140 137 134 141 144 145 143 144 144 146 149 145 142 133 124 111 117 133 111 99 101 102 94 79 71 54 38 30 28 25 11 16
181 179 174 175 170 168 163 160 165 153 149 143 145 138 141 146 151 155 157 155 153 152 149 147 146 140 122 132 184 181 199 185 148 93 102 49 14 16 12 12 10 3 357
182 180 177 182 177 172 163 151 144 140 139 147 158 156 154 153 157 160 162 161 162 165 165 168 166 162 159 161 217 242 231 234 203 183 183 205 329 338 344 356 356 349 346
184 181 178 181 178 171 167 169 171 171 170 176 169 164 160 163 163 160 166 163 167 167 167 173 178 184 179 187 174 268 316 321 241 226 197 215 294 311 317 330 335 338 337
180 177 178 177 179 178 177 177 177 175 169 161 159 160 162 164 166 168 172 168 168 166 167 164 171 183 191 198 197 194 195 230 256 256 257 252 272 285 298 308 314 323 330
177 175 176 176 177 178 177 176 177 173 168 164 167 167 166 165 171 178 184 181 179 175 177 177 184 189 195 196 204 206 206 214 235 255 263 267 275 281 287 288 288 296 300
Height
1521 1522 1523 1524 1526 1527 1528 1529 1530 1531 1532 1533 1533 1534 1535 1535 1536 1537 1537 1538 1539 1539 1540 1540 1541 1541 1541 1542 1542 1542 1542 1543 1543 1543 1544 1544 1544 1544 1544 1545 1545 1545 1544
1520 1521 1522 1523 1525 1526 1527 1529 1530 1531 1532 1533 1533 1534 1535 1535 1536 1537 1538 1538 1539 1540 1540 1541 1541 1542 1542 1542 1543 1543 1543 1544 1544 1545 1545 1545 1546 1546 1546 1546 1546 1546 1546
1519 1521 1521 1523 1524 1526 1527 1528 1529 1531 1532 1532 1533 1534 1535 1535 1536 1537 1538 1539 1539 1540 1540 1541 1542 1542 1543 1543 1543 1544 1544 1545 1545 1546 1547 1547 1547 1547 1547 1547 1547 1547 1547
1519 1520 1521 1522 1523 1525 1526 1527 1529 1530 1531 1532 1533 1534 1535 1535 1536 1537 1538 1539 1540 1540 1541 1541 1542 1543 1543 1544 1544 1545 1545 1546 1546 1547 1549 1549 1549 1548 1548 1548 1548 1548 1548
1519 1520 1520 1521 1523 1524 1525 1527 1528 1529 1531 1532 1533 1534 1534 1535 1536 1537 1538 1539 1540 1540 1541 1542 1542 1543 1544 1544 1545 1545 1546 1546 1547 1548 1549 1549 1549 1549 1549 1549 1549 1549 1549
1518 1519 1520 1521 1522 1523 1524 1526 1527 1529 1530 1531 1532 1533 1534 1535 1536 1537 1538 1539 1540 1540 1541 1542 1543 1543 1544 1545 1545 1546 1546 1547 1548 1549 1549 1550 1550 1549 1550 1550 1550 1550 1550
1517 1518 1519 1520 1521 1522 1523 1525 1526 1528 1529 1531 1532 1533 1534 1535 1536 1536 1537 1538 1539 1540 1541 1542 1543 1543 1544 1545 1546 1546 1547 1547 1549 1549 1549 1550 1550 1550 1550 1550 1550 1550 1550
1516 1517 1517 1518 1519 1521 1523 1524 1525 1527 1528 1530 1531 1532 1534 1535 1535 1536 1537 1538 1539 1540 1541 1542 1543 1543 1544 1545 1546 1546 1547 1547 1548 1549 1550 1550 1550 1550 1550 1550 1550 1550 1550
1515 1515 1516 1517 1518 1520 1521 1523 1525 1526 1528 1529 1531 1532 1533 1534 1535 1536 1537 1538 1539 1540 1541 1542 1543 1543 1544 1545 1546 1546 1547 1548 1549 1549 1549 1550 1549 1550 1550 1550 1550 1550 1550
1514 1514 1515 1516 1517 1519 1520 1522 1524 1525 1527 1529 1530 1532 1533 1534 1535 1536 1537 1538 1539 1540 1541 1542 1542 1543 1544 1545 1546 1546 1547 1548 1549 1549 1549 1549 1549 1549 1550 1550 1550 1550 1550
1512 1513 1514 1515 1516 1517 1519 1521 1523 1525 1526 1528 1529 1531 1532 1534 1535 1536 1537 1538 1539 1540 1541 1541 1542 1543 1544 1544 1545 1546 1547 1548 1548 1548 1548 1548 1548 1549 1549 1549 1549 1550 1550
1510 1511 1512 1513 1514 1516 1517 1519 1521 1524 1526 1528 1529 1530 1532 1533 1534 1535 1537 1538 1539 1540 1540 1541 1542 1542 1543 1544 1545 1545 1546 1547 1548 1547 1547 1547 1548 1548 1548 1549 1549 1549 1549
1509 1510 1511 1512 1513 1514 1516 1518 1520 1522 1524 1526 1528 1530 1531 1532 1533 1535 1536 1537 1538 1539 1540 1540 1541 1542 1542 1543 1544 1544 1545 1546 1547 1547 1546 1546 1547 1547 1547 1548 1548 1548 1548
1507 1508 1509 1510 1511 1513 1515 1517 1519 1521 1523 1524 1527 1528 1530 1531 1533 1534 1535 1536 1537 1538 1539 1540 1540 1541 1541 1542 1543 1543 1544 1545 1545 1545 1545 1545 1546 1546 1546 1546 1547 1547 1547
1505 1506 1507 1509 1510 1512 1513 1515 1518 1519 1522 1524 1525 1527 1529 1530 1532 1533 1534 1535 1537 1537 1538 1539 1539 1540 1540 1541 1541 1542 1542 1543 1544 1544 1544 1544 1545 1545 1545 1545 1546 1546 1546
1503 1504 1505 1506 1507 1509 1511 1514 1516 1518 1520 1522 1524 1526 1528 1530 1531 1532 1533 1534 1535 1536 1537 1538 1538 1539 1539 1540 1540 1541 1541 1542 1543 1543 1543 1544 1544 1544 1544 1544 1544 1544 1545
1501 1502 1503 1504 1506 1508 1510 1512 1514 1517 1519 1520 1523 1525 1527 1529 1530 1531 1532 1533 1534 1535 1536 1537 1537 1538 1538 1539 1539 1540 1540 1540 1541 1542 1542 1542 1542 1542 1542 1543 1543 1543 1543
1499 1500 1502 1503 1505 1507 1509 1511 1512 1515 1517 1519 1521 1523 1525 1527 1529 1530 1531 1532 1533 1534 1535 1536 1536 1537 1537 1538 1538 1538 1538 1539 1539 1540 1540 1541 1541 1541 1541 1541 1541 1541 1541
1497 1499 1501 1501 1503 1505 1507 1509 1511 1513 1515 1517 1520 1522 1524 1526 1527 1529 1530 1531 1532 1533 1534 1534 1535 1536 1536 1536 1537 1537 1537 1537 1537 1538 1539 1539 1539 1539 1539 1539 1539 1539 1539
1495 1497 1498 1500 1502 1504 1506 1508 1510 1512 1514 1516 1518 1520 1522 1524 1526 1527 1528 1530 1531 1532 1532 1533 1534 1534 1535 1535 1535 1536 1536 1535 1536 1536 1537 1537 1537 1538 1538 1537 1537 1537 1537
1493 1495 1496 1497 1499 1502 1504 1506 1509 1511 1513 1515 1517 1518 1520 1522 1524 1525 1526 1528 1529 1530 1531 1532 1532 1533 1533 1533 1534 1534 1535 1534 1535 1534 1535 1536 1536 1536 1536 1535 1535 1535 1534
1491 1492 1494 1495 1498 1500 1503 1506 1507 1510 1511 1514 1515 1517 1518 1520 1522 1523 1524 1526 1527 1528 1529 1530 1530 1531 1531 1532 1533 1533 1534 1535 1533 1533 1533 1534 1534 1534 1533 1533 1533 1532 1532
1488 1490 1492 1494 1496 1499 1501 1504 1506 1508 1509 1511 1513 1515 1516 1518 1520 1521 1522 1524 1525 1526 1527 1528 1528 1529 1529 1530 1531 1532 1533 1533 1532 1531 1531 1531 1532 1531 1531 1530 1530 1530 1529
1486 1488 1490 1492 1494 1497 1499 1501 1503 1505 1507 1509 1511 1513 1515 1516 1517 1519 1520 1521 1522 1524 1525 1526 1526 1527 1528 1528 1528 1529 1530 1530 1530 1529 1529 1529 1529 1529 1529 1528 1527 1527 1527
1483 1485 1487 1490 1492 1494 1497 1500 1501 1503 1506 1507 1509 1511 1513 1514 1515 1517 1518 1519 1520 1521 1522 1523 1524 1524 1525 1525 1526 1526 1526 1527 1527 1527 1527 1527 1526 1526 1526 1525 1525 1524 1524
1480 1482 1485 1487 1489 1492 1494 1497 1499 1501 1503 1505 1507 1508 1510 1512 1513 1514 1515 1517 1518 1519 1520 1521 1521 1522 1522 1523 1523 1523 1524 1524 1524 1524 1524 1523 1523 1523 1522 1522 1521 1521 1520